Flag for Germany Weather past 2 weeks in Dresden, Saxony, Germany

Now
57 °F

Sunny.


Feels Like: 56 °F
Forecast: 59 / 77 °F
Wind: 7 mph from Northeast

Location: Dresden-Klotzsche

Current Time: Jul 24, 2014 at 7:09:02 AM

Latest Report: Jul 24, 2014 at 6:20 AM


Visibility: 10 mi

Pressure: 30.01 "Hg

Humidity: 88%

Dew point: 54 °F

Location of DresdenLocation

Historic Weather in Dresden — Graph

°F

Dresden temperature yesterday

Maximum temperature yesterday: 82 °F (at 4:50 PM)
Minimum temperature yesterday: 61 °F (at 5:20 AM)
Average temperature yesterday: 70 °F

Past Weeks' High & Low Weather Summary

 TemperatureHumidityPressure
High90 °F (Jul 20, 2:20 PM)100% (Jul 10, 8:50 AM)30.18 "Hg (Jul 10, 8:50 AM)
Low52 °F (Jul 12, 4:50 AM)24% (Jul 20, 3:50 PM)29.53 "Hg (Jul 9, 6:50 AM)
Average69 °F66%29.94 "Hg
* Reported Jul 9 6:50 AM — Jul 24 5:50 AM, Dresden, Weather by CustomWeather, © 2014

Note: Actual official high and low records may vary slightly from our data, if they occured in-between our weather recording intervals... More about our weather records

Advertising

Dresden weather history for previous 24 hours

 ConditionsComfort  
Time TempWeatherWind HumidityBarometerVisibility
5:50 AM
Jul 24
57 °FFog.5 mph88%30.01 "HgN/A
5:20 AM57 °FClear.3 mph94%29.98 "Hg10 mi
4:50 AM59 °FClear.5 mph88%29.98 "Hg10 mi
4:20 AM59 °FClear.5 mph88%29.98 "Hg10 mi
3:50 AM59 °FClear.3 mph88%29.98 "Hg10 mi
3:20 AM61 °FClear.5 mph77%29.98 "Hg10 mi
2:50 AM61 °FClear.3 mph77%30.01 "Hg10 mi
2:20 AM61 °FClear.3 mph77%30.01 "Hg10 mi
1:50 AM61 °FClear.5 mph77%30.01 "Hg10 mi
1:20 AM63 °FClear.6 mph73%30.01 "Hg10 mi
12:50 AM63 °FClear.7 mph73%30.01 "Hg10 mi
12:20 AM63 °FClear.7 mph73%30.01 "Hg10 mi
11:50 PM
Jul 23
63 °FClear.5 mph73%30.01 "Hg10 mi
11:20 PM63 °FClear.5 mph73%30.01 "Hg10 mi
10:50 PM64 °FClear.6 mph68%30.04 "Hg10 mi
10:20 PM64 °FClear.5 mph68%30.04 "Hg10 mi
9:50 PM64 °FSunny.5 mph68%30.01 "Hg10 mi
9:20 PM66 °FPassing clouds.5 mph60%30.01 "HgN/A
8:50 PM66 °FSunny.9 mph64%30.01 "Hg10 mi
8:20 PM68 °FScattered showers. Scattered clouds.17 mph60%30.01 "HgN/A
7:50 PM68 °FScattered showers. Scattered clouds.25 mph56%30.01 "HgN/A
7:20 PM77 °FScattered showers. Scattered clouds.15 mph34%29.98 "HgN/A
6:50 PM79 °FScattered clouds.10 mph28%29.98 "HgN/A
6:20 PM81 °FSunny.10 mph24%29.98 "Hg10 mi
5:50 PM81 °FSunny.13 mph24%29.98 "Hg10 mi
5:20 PM81 °FSunny.12 mph28%29.98 "Hg10 mi
4:50 PM82 °FPleasantly warm.10 mph28%29.98 "HgN/A
4:20 PM81 °FSunny.16 mph28%29.98 "Hg10 mi
3:50 PM81 °FSunny.13 mph30%29.98 "Hg10 mi
3:20 PM81 °FScattered clouds.13 mph32%30.01 "HgN/A
2:50 PM79 °FScattered clouds.13 mph37%30.01 "HgN/A
2:20 PM81 °FSunny.15 mph37%30.01 "Hg10 mi
1:50 PM81 °FSunny.10 mph34%30.04 "Hg10 mi
1:20 PM79 °FSunny.7 mph37%30.04 "Hg10 mi
11:50 AM77 °FSunny.10 mph44%30.07 "Hg10 mi
11:20 AM75 °FPassing clouds.8 mph50%30.07 "HgN/A
10:50 AM73 °FPassing clouds.9 mph53%30.07 "HgN/A
9:50 AM72 °FPassing clouds.5 mph61%30.07 "HgN/A
7:50 AM66 °FSunny.5 mph68%30.07 "Hg10 mi
7:20 AM64 °FSunny.3 mph73%30.07 "Hg10 mi
Weather by CustomWeather, © 2014

See weather overviewHow to use our weather pages